[ show orbit diagram ]
Orbital Elements at Epoch 2459200.5 (2020-Dec-17.0) TDB
Reference: JPL 26 (heliocentric ecliptic J2000)
Element | Value | Uncertainty (1-sigma) | Units |
e | .171749894095057 | 2.7852e-08 | |
a | 2.333812230692784 | 7.5004e-09 | au |
q | 1.932980227233549 | 6.4243e-08 | au |
i | 4.081250143537869 | 3.3121e-06 | deg |
node | 121.3405187133323 | 4.7025e-05 | deg |
peri | 344.0851779749964 | 4.8363e-05 | deg |
M | 206.7977527172494 | 1.0293e-05 | deg |
tp | 2459754.691587800072 (2022-Jun-24.19158780) | 3.7636e-05 | TDB |
period | 1302.258779793298 3.57 | 6.2778e-06 1.719e-08 | d yr |
n | .2764427513071874 | 1.3326e-09 | deg/d |
Q | 2.734644234152019 | 8.7885e-09 | au |
|
| | Orbit Determination Parameters
Additional Information
|
[ show covariance matrix ]
Physical Parameter Table
Parameter |
Symbol |
Value |
Units |
Sigma |
Reference |
Notes |
absolute magnitude |
H |
14.68 |
|
n/a |
E2021B10 |
|
diameter |
diameter |
2.956 |
km |
0.502 |
urn:nasa:pds:neowise_diameters_albedos::2.0[mainbelt] (http://adsabs.harvard.edu/abs/2011ApJ...741...68M) |
|
rotation period |
rot_per |
2.150 |
h |
n/a |
LCDB (Rev. 2020-October); Warner et al., 2009 |
Result based on fragmentary lightcurve(s), may be completely wrong. Published Reference List: [Waszczak, A.; Chang, C.-K.; Ofeck, E.O.; Laher, F.; et al. (2015) Astron. J. 150, A75.] |
geometric albedo |
albedo |
0.202 |
|
0.047 |
urn:nasa:pds:neowise_diameters_albedos::2.0[mainbelt] (http://adsabs.harvard.edu/abs/2011ApJ...741...68M) |
|
|
19141 Poelkapelle | Discovered 1989 Sept. 26 by E. W. Elst at the European Southern Observatory. |
Poelkapelle, a village in West Flanders near the city of Ypres, has a rich historical past. In 1037 the place Capelle ten Poele (chapel near the swamp) was mentioned, from which the name Poelkapelle was derived. From several ancient documents it became clear that the village was attacked by Vikings, Frisians, Saxons and Franks. |
NOTE: some special characters may not display properly (any characters within {} are an attempt to place the proper accent above a character) |
Reference: MPC batch dated 2014-04-15 | Last Updated: 2014-04-17 |
|
[ show close-approach data ]
|
|